Regional Weather Roundup
Issued by NWS

Home | Current Version | Previous Version | Graphics & Text | Print | Product List | Glossary On
Versions: 1 2 3 4 5 6 7 8 9 10 11 12 13 14 15 16 17 18 19 20 21 22 23 24 25 26 27 28 29 30 31 32 33 34 35 36 37 38 39 40 41 42 43 44 45 46 47 48 49 50
000
ASUS43 KIND 310509
RWRIN

WEATHER ROUNDUP FOR INDIANA
NATIONAL WEATHER SERVICE INDIANAPOLIS IN
100 AM EDT SUN AUG 31 2014

NOTE: "FAIR" INDICATES FEW OR NO CLOUDS BELOW 12,000 FEET WITH NO
SIGNIFICANT WEATHER AND/OR OBSTRUCTIONS TO VISIBILITY.

* - STATION DOES NOT REPORT WEATHER SUCH AS PRECIPITATION OR FOG.

+ - STATION NOT QUALITY CONTROLLED BY THE NATIONAL WEATHER SERVICE.
    USE DATA WITH CAUTION...ESPECIALLY DEWPOINT AND RELATIVE
    HUMIDITY OBSERVATIONS.

INZ001>003-010>013-019-020-310600-
NORTHWEST INDIANA

CITY           SKY/WX    TMP DP  RH WIND       PRES   REMARKS
GARY /AIRPORT/ CLOUDY    72  68  88 CALM      29.92F
KNOX *+        CLOUDY    70  66  89 CALM      29.94S
LA PORTE +     CLOUDY    70  69  96 SW8       29.95S
MICHIGAN CITY+ CLOUDY    70  68  94 S5        29.94S
MONTICELLO +   CLOUDY    69  69  97 W3        29.96R
RENSSELAER +   CLOUDY    68  66  94 S14       29.96S THUNDER
VALPARAISO     CLOUDY    69  65  86 S7        29.94F

$$

LMZ046-743>745-310600-
SOUTHERN LAKE MICHIGAN

STATION/POSITION TIME  TEMP WIND        PRES
                       AIR  DIR/SP/G
                 (UTC) (F)  (DEG/KT/KT) (MB)
MICHIGAN CITY    0500   71  170/ 11/ 14   N/A

$$

INZ004-005-014>016-021>024-310600-
NORTH CENTRAL INDIANA

CITY           SKY/WX    TMP DP  RH WIND       PRES   REMARKS
GOSHEN         CLOUDY    74  70  87 SW10      29.95R
LOGANSPORT +   CLOUDY    72  68  88 SW8       29.97S
PERU/GRISSOM   CLOUDY    73  73 100 SW13      29.97R
ROCHESTER +    CLOUDY    73  70  88 SW12      29.96S
SOUTH BEND     CLOUDY    73  69  87 SW12      29.94S
WARSAW +       CLOUDY    73  70  88 SW7       29.96R

$$

INZ006>009-017-018-025>027-310600-
NORTHEAST INDIANA

CITY           SKY/WX    TMP DP  RH WIND       PRES   REMARKS
ANGOLA *+      CLOUDY    75  66  73 SW8       29.96R
AUBURN +       CLOUDY    73  68  83 SW7       29.97S
FORT WAYNE     CLOUDY    73  69  87 S12       29.98S
HUNTINGTON +   CLOUDY    73  70  91 SW8       29.98S

$$

INZ028-029-035-036-043>045-051>053-310600-
WEST CENTRAL INDIANA

CITY           SKY/WX    TMP DP  RH WIND       PRES   REMARKS
GREENCASTLE +  CLOUDY    70  68  94 S7        30.02S
LAFAYETTE      CLOUDY    72  66  81 N3        29.97S
TERRE HAUTE    CLOUDY    71  68  90 S8        30.00F

$$

INZ030>032-037>040-046>048-054>057-064-065-310600-
CENTRAL INDIANA

CITY           SKY/WX    TMP DP  RH WIND       PRES   REMARKS
CP ATTERBURY + CLOUDY    70  66  88 S5        30.04S
FRANKFORT +    CLOUDY   N/A N/A N/A S7        30.01R
INDIANAPOLIS   CLOUDY    71  67  87 SW10      30.01R
-EAGLE CREEK   CLOUDY    72  66  81 S6        30.01R
KOKOMO *+      CLOUDY    73  68  83 SW12      29.99S
MARION +       CLOUDY    71  67  87 S7        30.00S
MT COMFORT *+  CLOUDY    70 N/A N/A S7        30.02F
SHELBYVILLE    CLOUDY    72  68  87 S8        30.02S
ZIONSVILLE +   CLOUDY    73  66  81 S10       30.01F

$$

INZ033-034-041-042-049-050-058-059-310600-
EAST CENTRAL INDIANA

CITY           SKY/WX    TMP DP  RH WIND       PRES   REMARKS
MUNCIE         CLOUDY    72  67  84 SW7       30.01R

$$

INZ060-061-067>069-081>083-085>088-310600-
SOUTHWEST INDIANA

CITY           SKY/WX    TMP DP  RH WIND       PRES   REMARKS
EVANSVILLE     CLOUDY    73  69  87 S7        30.01F
WASHINGTON +   CLOUDY    70  70 100 S5        30.00F

$$

INZ062-063-066-070>080-084-089>092-310600-
SOUTH CENTRAL AND SOUTHEAST INDIANA

CITY           SKY/WX    TMP DP  RH WIND       PRES   REMARKS
BLOOMINGTON    CLOUDY    70  67  90 S3        30.03S

$$



USA.gov is the U.S. government's official web portal to all federal, state and local government web resources and services.